OBJECT F, 61263

Orbit data source: Space-Track

You're viewing an Uncataloged Satellite

Recently launched and/or uncataloged satellites may have evolving metadata. Metadata may include but not limited to: Owner, Maufacturer, Bus, Motor, and Mission.

OBJECT F, 61263 is a satellite owned by CASC (CN) in SSO that was launched on Tue, 24 Sep 2024 UTC launched from the Jiuquan Satellite Launch Center, China (JSC). Unknown objects in Earth's orbit typically refer to objects detected orbiting the Earth but have not yet been identified or cataloged. These objects could be anything from previously untracked satellites, spent rocket stages, debris from satellite collisions, or even natural meteoroids temporarily captured by Earth's gravity.

Not visible in the next 10 days
OBJECT F details
Identifier
61263, 2024-174F
Orbit
SSO
Last TLE update13 hours ago
Origin
Flag of CNCASC (CN / PRC)
ManufacturerCAS
MissionSpacecraft
Bus & MotorUnknown
Mass500 kg wet, 500 kg dry
Launch date (UTC)
2024-09-24 (3 months ago)
Launch vehicleUnknown
Launch site
Jiuquan Satellite Launch Center, China (JSC)
Object typeUnknown
Shape & HBRUnknown
Radar Cross SectionLarge (>1 m²)

Expand to show TLE details & history

TLE from 13 hours ago
0 OBJECT F
1 61263U 24174F   24356.00205801  .01262289  23751-5  92554-3 0  9993
2 61263  97.4163   7.1918 0054561  63.2984 297.3871 16.12121395 13641
Epoch: 2024-12-21T00:02Z
Definitive object data (Epoch: 2024-12-21T00:02:57.812Z)
Latitude-0.00003°
Longitude-83.60855°
Altitude227.783 km
Speed7.78 km/s
True Right ascension00h 28m 46s
True Declination0° 00' 00"
Sunlit
Object was in daylight at TLE epoch
Visualization TLE readout
Latitude-81.20411°
Longitude40.23349°
Altitude297.287 km
Speed7.709 km/s
Apparent Right ascension00h 47m 24s
Apparent Declination-67° 55' 37"
Sunlit
Object is in daylight
Visualization observer readout
Local Sidereal Time12:05:20
Azimuth188.238° SSW
Elevation-61.404°
Doppler factor1
Orbital elements
Apogee altitude273.972 km
Perigee altitude201.777 km
Semi-major axis6,616.012 km
Eccentricity0.0054561
Inclination97.4163°
RAAN7.1918°
Arg. of periapsis63.2984°
True anomaly296.83021°
Mean anomaly297.3871°
Eccentric anomaly297.10883°
Mean motion4.03319 °/min
BSTAR0.00092554
Orbital period89.26 mins
Loading maneuver chart data...
Loading historical data...
Loading historical data...
Loading historical data...
Loading historical data...
Loading historical data...
Loading historical data...
Loading historical data...

OBJECT F Visibility forecast

Observer location: undefined°, undefined

OBJECT F is not visible in the next 10 days
Span
Click to sort rows by Start time (UTC) header in descending order
Start Az.
Max El. time (UTC)
Max El. Az.
Max El.
End time (UTC)
End Az.
|